Hourly Data Report for September 05, 2020

BRIER ISLAND
NOVA SCOTIA
Current Station Operator: ECCC - MSC

44°17'09.000" N
66°20'48.000" W
15.80 m
8200604
71988
WVU

Download Data

Hourly Data (September 2020)
Hourly Data Report for September 5, 2020
TIME Temp Definition
°C
Dew Point Definition
°C
Rel Hum Definition
%
Wind Dir Definition
10's deg

Wind Spd Definition
km/h
Visibility Definition
km
Stn Press Definition
kPa
Hmdx Definition


Wind Chill Definition


Weather Definition


00:00 14.0 13.8 99 33 9   101.10     LegendNANA
01:00 14.0 12.8 93 34 8   101.14     LegendNANA
02:00 14.1 13.1 94 35 7   101.18     LegendNANA
03:00 14.4 12.5 88 0 1   101.21     LegendNANA
04:00 14.9 12.1 84 35 2   101.25     LegendNANA
05:00 14.6 11.1 79 31 3   101.31     LegendNANA
06:00 12.6 11.8 95 24 13   101.40     LegendNANA
07:00 14.3 11.8 85 24 12   101.45     LegendNANA
08:00 14.6 12.2 85 25 13   101.50     LegendNANA
09:00 15.4 12.0 80 25 12   101.57     LegendNANA
10:00 15.3 12.0 81 24 10   101.62     LegendNANA
11:00 15.9 12.1 78 25 12   101.64     LegendNANA
12:00 17.0 10.8 67 24 10   101.62     LegendNANA
13:00 17.8 11.8 68 24 12   101.63     LegendNANA
14:00 17.9 12.1 69 23 13   101.63     LegendNANA
15:00 18.4 11.2 63 23 15   101.62     LegendNANA
16:00 19.3 9.7 54 21 15   101.62     LegendNANA
17:00 18.3 10.8 62 21 15   101.64     LegendNANA
18:00 16.8 12.2 74 21 15   101.68     LegendNANA
19:00 15.8 10.6 71 20 16   101.73     LegendNANA
20:00 15.2 11.4 78 21 16   101.77     LegendNANA
21:00 14.8 14.0 95 21 16   101.83     LegendNANA
22:00 14.5 14.0 97 22 14   101.85     LegendNANA
23:00 15.2 14.4 95 21 15   101.84     LegendNANA

Notes on Data Quality.

Legend

  • E = Estimated
  • M = Missing
  • NA = Not Available*
  • [empty] = Indicates an unobserved value
Date modified: